Weather History for Pine River, MN

Change the Weather History Date:

Wednesday, September 18, 2013

  Actual Average Record
Temperature  
Mean Temperature 62 °F -  
Max Temperature 68 °F 65 °F 86 °F (1998)
Min Temperature 55 °F 43 °F 26 °F (2012)
Degree Days  
Heating Degree Days 4    
Growing Degree Days 12 (Base 50)    
Moisture  
Dew Point 62 °F    
Average Humidity 100    
Maximum Humidity 100    
Minimum Humidity 100    
Precipitation  
Precipitation 0.00 in - - ()
Sea Level Pressure  
Sea Level Pressure 29.80 in    
Wind  
Wind Speed 7 mph (SE)    
Max Wind Speed 10 mph    
Max Gust Speed -    
Visibility 3 miles    
Events      
Averages and records for this station are not official NWS values.
T = Trace of Precipitation, MM = Missing Value Source: NWS Daily Summary

Daily Weather History Graph

Daily Weather History Graph

Search for Another Location

Airport:

Trip Planner

Search our weather history database for the weather conditions in past years. The results will help you decide how hot, cold, wet, or windy it might be!

Date:

Astronomy

Sep. 18, 2013 Rise Set
Actual Time 6:59 AM CDT 7:22 PM CDT
Civil Twilight 6:29 AM CDT 7:52 PM CDT
Nautical Twilight 5:53 AM CDT 8:28 PM CDT
Astronomical Twilight 5:16 AM CDT 9:05 PM CDT
Moon 6:44 PM CDT (9/18) 6:01 AM CDT (9/18)
Length of Visible Light 13h 23m
Length of Day
12h 23m
Waxing Gibbous, 99% of the Moon is Illuminated
Sep 18
Waxing Gibbous
Sep 19
Full
Sep 26
Last Quarter
Oct 4
New
Oct 11
First Quarter

Hourly Weather History & Observations

Time (CDT) Temp. Dew Point Humidity Pressure Visibility Wind Dir Wind Speed Gust Speed Precip Events Conditions
12:12 AM 55.4 °F 55.4 °F 100% 29.94 in 5.0 mi SSE 9.2 mph - N/A   Overcast
12:33 AM 55.4 °F 55.4 °F 100% 29.93 in 5.0 mi SSE 8.1 mph - N/A   Overcast
12:53 AM 55.4 °F 55.4 °F 100% 29.92 in 7.0 mi SSE 8.1 mph - N/A   Overcast
1:13 AM 55.4 °F 55.4 °F 100% 29.91 in 7.0 mi SSE 8.1 mph - N/A   Overcast
1:33 AM 55.4 °F 55.4 °F 100% 29.91 in 7.0 mi SSE 6.9 mph - N/A   Overcast
1:53 AM 55.4 °F 55.4 °F 100% 29.91 in 7.0 mi SSE 8.1 mph - N/A   Overcast
2:13 AM 55.4 °F 55.4 °F 100% 29.90 in 7.0 mi SSE 8.1 mph - N/A   Overcast
2:33 AM 55.4 °F 55.4 °F 100% 29.90 in 4.0 mi SSE 8.1 mph - N/A   Overcast
2:53 AM 55.4 °F 55.4 °F 100% 29.89 in 2.5 mi SSE 6.9 mph - N/A   Overcast
3:13 AM 55.4 °F 55.4 °F 100% 29.89 in 2.5 mi SSE 6.9 mph - N/A   Overcast
3:33 AM 55.4 °F 55.4 °F 100% 29.88 in 2.5 mi SSE 8.1 mph - N/A   Overcast
3:52 AM 57.2 °F 57.2 °F 100% 29.88 in 2.5 mi SSE 5.8 mph - N/A   Overcast
4:13 AM 57.2 °F 57.2 °F 100% 29.88 in 1.8 mi SSE 6.9 mph - N/A   Overcast
4:33 AM 57.2 °F 57.2 °F 100% 29.87 in 1.8 mi SSE 5.8 mph - N/A   Overcast
4:53 AM 57.2 °F 57.2 °F 100% 29.87 in 1.8 mi SSE 5.8 mph - N/A   Overcast
5:13 AM 57.2 °F 57.2 °F 100% 29.86 in 1.5 mi SE 6.9 mph - N/A   Overcast
5:33 AM 57.2 °F 57.2 °F 100% 29.85 in 2.0 mi SE 6.9 mph - N/A   Overcast
5:53 AM 57.2 °F 57.2 °F 100% 29.84 in 1.2 mi SE 6.9 mph - N/A   Overcast
6:13 AM 57.2 °F 57.2 °F 100% 29.84 in 0.8 mi SE 5.8 mph - N/A   Overcast
6:32 AM 57.2 °F 57.2 °F 100% 29.84 in 0.8 mi SE 5.8 mph - N/A   Overcast
6:53 AM 57.2 °F 57.2 °F 100% 29.84 in 0.8 mi SE 5.8 mph - N/A   Overcast
7:12 AM 57.2 °F 57.2 °F 100% 29.84 in 1.0 mi SE 6.9 mph - N/A   Overcast
7:33 AM 57.2 °F 57.2 °F 100% 29.85 in 1.2 mi SE 5.8 mph - N/A   Overcast
7:53 AM 57.2 °F 57.2 °F 100% 29.85 in 0.8 mi SE 5.8 mph - N/A   Overcast
8:13 AM 57.2 °F 57.2 °F 100% 29.84 in 1.0 mi SE 6.9 mph - N/A   Overcast
8:32 AM 59.0 °F 59.0 °F 100% 29.84 in 1.2 mi SE 5.8 mph - N/A   Overcast
8:53 AM 59.0 °F 59.0 °F 100% 29.85 in 1.0 mi SE 6.9 mph - N/A   Overcast
9:12 AM 59.0 °F 59.0 °F 100% 29.85 in 1.2 mi SE 4.6 mph - N/A   Overcast
9:33 AM 59.0 °F 59.0 °F 100% 29.85 in 1.0 mi SE 5.8 mph - N/A   Overcast
9:52 AM 59.0 °F 59.0 °F 100% 29.84 in 0.8 mi SE 6.9 mph - N/A   Overcast
10:13 AM 60.8 °F 60.8 °F 100% 29.83 in 1.0 mi SE 6.9 mph - N/A   Overcast
10:33 AM 60.8 °F 60.8 °F 100% 29.83 in 1.2 mi ESE 9.2 mph - N/A   Overcast
10:52 AM 60.8 °F 60.8 °F 100% 29.83 in 1.8 mi SE 8.1 mph - N/A   Overcast
11:13 AM 60.8 °F 60.8 °F 100% 29.82 in 1.5 mi SE 8.1 mph - N/A   Overcast
11:33 AM 60.8 °F 60.8 °F 100% 29.82 in 1.5 mi ESE 6.9 mph - N/A   Overcast
11:53 AM 60.8 °F 60.8 °F 100% 29.81 in 1.5 mi SE 9.2 mph - N/A   Overcast
12:13 PM 62.6 °F 62.6 °F 100% 29.80 in 1.5 mi SE 8.1 mph - N/A   Overcast
12:32 PM 62.6 °F 62.6 °F 100% 29.79 in 1.8 mi SE 6.9 mph - N/A   Overcast
12:52 PM 62.6 °F 62.6 °F 100% 29.78 in 2.5 mi SE 9.2 mph - N/A   Overcast
1:13 PM 62.6 °F 62.6 °F 100% 29.77 in 3.0 mi SSE 8.1 mph - N/A   Overcast
1:33 PM 64.4 °F 64.4 °F 100% 29.77 in 4.0 mi SE 9.2 mph - N/A   Overcast
1:53 PM 64.4 °F 64.4 °F 100% 29.76 in 3.0 mi SE 6.9 mph - N/A   Overcast
2:13 PM 64.4 °F 64.4 °F 100% 29.76 in 3.0 mi ESE 4.6 mph - N/A   Overcast
2:32 PM 64.4 °F 64.4 °F 100% 29.76 in 2.5 mi SE 6.9 mph - N/A   Overcast
2:53 PM 64.4 °F 64.4 °F 100% 29.75 in 2.5 mi SE 6.9 mph - N/A   Overcast
3:13 PM 66.2 °F 66.2 °F 100% 29.75 in 2.5 mi SE 6.9 mph - N/A   Overcast
3:32 PM 66.2 °F 66.2 °F 100% 29.75 in 2.5 mi SE 10.4 mph - N/A   Overcast
3:53 PM 66.2 °F 66.2 °F 100% 29.74 in 2.5 mi SE 9.2 mph - N/A   Overcast
4:12 PM 66.2 °F 66.2 °F 100% 29.74 in 2.5 mi SE 9.2 mph - N/A   Overcast
4:33 PM 66.2 °F 66.2 °F 100% 29.73 in 2.5 mi SE 9.2 mph - N/A   Overcast
4:53 PM 66.2 °F 66.2 °F 100% 29.73 in 2.5 mi SE 6.9 mph - N/A   Overcast
5:12 PM 66.2 °F 66.2 °F 100% 29.73 in 2.0 mi SE 5.8 mph - N/A   Overcast
5:33 PM 66.2 °F 66.2 °F 100% 29.73 in 2.5 mi SE 8.1 mph - N/A   Overcast
5:52 PM 68.0 °F 68.0 °F 100% 29.72 in 3.0 mi SE 8.1 mph - N/A   Overcast
6:13 PM 68.0 °F 68.0 °F 100% 29.72 in 3.0 mi SE 6.9 mph - N/A   Overcast
6:33 PM 68.0 °F 68.0 °F 100% 29.72 in 3.0 mi SE 8.1 mph - N/A   Overcast
6:53 PM 68.0 °F 68.0 °F 100% 29.72 in 4.0 mi SE 6.9 mph - N/A   Overcast
7:13 PM 68.0 °F 68.0 °F 100% 29.72 in 4.0 mi SSE 6.9 mph - N/A   Overcast
7:33 PM 68.0 °F 68.0 °F 100% 29.71 in 5.0 mi SE 8.1 mph - N/A   Overcast
7:52 PM 68.0 °F 68.0 °F 100% 29.71 in 5.0 mi SE 6.9 mph - N/A   Overcast
8:13 PM 68.0 °F 68.0 °F 100% 29.72 in 5.0 mi SE 5.8 mph - N/A   Overcast
8:33 PM 68.0 °F 68.0 °F 100% 29.73 in 5.0 mi SE 4.6 mph - N/A   Overcast
8:52 PM 68.0 °F 68.0 °F 100% 29.74 in 5.0 mi SE 5.8 mph - N/A   Overcast
9:12 PM 68.0 °F 68.0 °F 100% 29.73 in 5.0 mi SE 6.9 mph - N/A   Overcast
9:33 PM 66.2 °F 66.2 °F 100% 29.73 in 5.0 mi SE 8.1 mph - N/A   Overcast
9:53 PM 66.2 °F 66.2 °F 100% 29.73 in 4.0 mi SE 5.8 mph - N/A   Overcast
10:12 PM 66.2 °F 66.2 °F 100% 29.72 in 4.0 mi SE 9.2 mph - N/A   Overcast
10:32 PM 66.2 °F 66.2 °F 100% 29.72 in 3.0 mi SE 9.2 mph - N/A   Overcast
10:53 PM 68.0 °F 68.0 °F 100% 29.73 in 3.0 mi SSE 8.1 mph - N/A   Overcast
11:13 PM 68.0 °F 68.0 °F 100% 29.71 in 3.0 mi SE 10.4 mph - N/A   Overcast
11:32 PM 68.0 °F 68.0 °F 100% 29.71 in 3.0 mi SE 8.1 mph - N/A   Overcast
11:53 PM 68.0 °F 68.0 °F 100% 29.71 in 3.0 mi SE 6.9 mph - N/A   Overcast